STARLINK-1557 (46034 NORAD) Tracking and Keplerian Element Data

This shows tracking and keplerian element data for the satellite.

Feedback or suggestion? Click here.




ElementValue
Catalog46034
NameSTARLINK-1557
Epoch Orbit1830
Epoch Day336.14415488
Epoch Year2020
RAAN126.2366
Inclination53.002
Eccentricity0.0001969
Argument of Perigee96.5862
Mean Anonmoly263.535
Mean Motion15.05589141
Decay Rate3.05E-06
L11 46034U 20055H 20336.14415488 .00000305 00000-0 40110-4 0 9996
L22 46034 53.0020 126.2366 0001969 96.5862 263.5350 15.05589141 18301

Live tracking and technical data element details for STARLINK-1557 (NORAD 46034). STARLINK-1557 can be tracked NOW for your location showing map with azimuth and elevation plus other details from your city location.

Track the satellite on the map from your city or location and see movement details for azimuth, elevation, latitude, longitude, range, height, and movement on the map or in text.







IsCatalogInMostPopularTable: catalog: 46034, numindb: 29
Update: records affected: 1



GetName: 46034 STARLINK-1557

Hit Count: updated at: Tue, 01 Dec 2020 21:24:31 GMT